GFSNW_925_rhum_033.txt.gz
RH
55 56 61 53 49 45 46 61 61 58 47 56 64 54 36 31 26 26 27 28 23 28 26 35 36 47 42 30 33 36 31 39 48 33 25 25 26 33 38 77 58 69 83 60
55 56 64 56 47 47 52 68 79 58 62 69 64 43 30 25 29 27 26 33 33 31 37 43 51 52 43 44 48 52 43 43 68 46 40 34 27 24 24 41 70 64 81 65
53 55 63 59 48 44 58 80 78 72 71 64 51 43 37 35 35 32 28 31 28 32 38 37 52 54 45 46 42 50 50 40 48 63 36 29 28 27 24 31 82 69 68 53
53 54 61 61 52 50 54 76 68 56 70 54 55 42 40 41 41 31 29 31 33 36 40 44 54 55 51 46 48 43 50 56 53 50 37 32 30 33 31 32 34 49 48 41
53 53 59 57 53 49 49 75 68 52 57 39 43 52 36 43 37 38 36 34 34 41 44 49 53 51 48 50 44 42 47 72 58 52 52 50 43 43 44 35 32 37 42 44
54 53 58 53 49 42 62 44 45 73 68 47 55 52 34 34 42 36 36 34 57 65 52 49 51 48 45 47 47 54 68 76 86 85 77 76 74 50 37 35 37 38 48 49
56 55 60 50 47 53 62 56 68 91 73 64 52 41 36 43 37 42 54 51 60 44 41 46 58 53 49 51 49 63 74 84 96 89 84 56 48 35 41 46 46 48 59 66
58 57 60 48 47 53 49 50 68 94 97 64 44 34 49 55 62 62 60 54 48 42 58 75 54 80 55 57 52 55 66 90 97 95 94 63 47 39 46 52 65 66 75 75
63 58 60 52 50 50 41 52 64 83 94 74 52 42 52 71 73 71 62 55 50 63 92 86 79 82 60 65 61 67 75 81 85 92 91 85 59 43 37 37 76 71 77 83
67 60 59 55 58 61 49 45 58 74 84 70 64 62 60 62 70 86 70 62 63 76 97 100 94 82 54 78 83 91 94 87 91 96 90 80 59 39 37 69 74 82 82 84
70 64 56 54 52 63 53 47 66 65 90 73 73 73 71 58 76 87 73 74 84 98 95 96 98 96 86 66 67 84 85 94 92 84 85 95 50 56 62 73 81 78 76 78
75 67 58 52 50 58 59 46 58 56 86 86 68 65 65 69 68 73 69 63 81 92 98 99 100 96 100 96 79 54 80 78 90 78 80 60 54 64 78 77 82 77 71 73
78 72 64 55 49 60 60 55 63 58 98 84 78 79 64 52 60 60 80 83 65 78 84 95 92 98 95 94 90 55 49 53 77 72 55 64 83 79 75 77 83 77 69 65
82 77 70 61 58 68 63 64 71 60 96 100 86 60 64 61 61 58 58 69 74 86 94 100 99 99 82 95 73 74 64 56 58 66 72 86 84 83 84 83 79 68 60 56
85 81 74 67 70 73 62 60 71 74 77 98 93 61 60 59 62 59 61 65 82 96 100 100 99 96 88 95 87 96 66 66 80 84 70 77 91 89 84 84 68 61 44 39
91 86 78 71 72 75 76 90 69 67 70 98 98 71 66 57 58 60 78 78 91 92 100 99 96 81 86 96 99 69 53 49 60 84 86 89 92 89 76 70 57 40 33 29
96 91 84 77 72 73 79 86 82 73 67 100 97 93 78 64 64 82 88 86 95 90 97 100 94 90 93 100 99 73 56 70 76 79 84 92 85 86 68 59 45 28 27 30
98 93 87 83 76 72 82 74 80 80 82 98 99 99 96 71 98 100 91 100 96 97 99 100 96 96 99 96 86 70 57 75 80 82 74 77 75 64 61 52 30 36 38 38
98 89 92 85 79 91 91 81 76 75 82 96 98 99 95 81 97 99 96 99 100 99 100 100 96 100 97 90 79 69 73 77 83 74 62 60 61 42 36 34 38 41 48 50
100 98 94 100 100 95 83 86 98 100 100 100 98 92 97 88 100 100 98 100 100 100 99 98 100 99 90 84 65 67 73 69 64 66 54 49 44 43 40 39 51 53 56 57
100 99 100 99 99 92 100 100 100 100 100 100 98 94 95 91 99 100 100 100 100 95 92 98 99 98 88 74 76 75 70 63 58 42 36 36 39 43 52 56 60 57 57 62
98 94 99 94 94 100 100 100 100 100 99 100 100 100 98 100 97 100 100 100 99 96 96 100 94 89 77 72 73 69 65 49 36 34 38 39 41 49 52 52 56 61 62 59
93 93 100 100 100 100 100 95 100 100 99 100 100 100 100 100 100 100 100 100 98 99 100 96 96 74 68 66 60 53 42 39 39 43 43 40 41 41 45 54 57 61 68 67
99 100 99 100 99 99 99 99 99 100 100 100 100 99 100 100 100 99 99 99 99 99 98 96 94 79 61 58 57 56 54 57 51 50 50 49 48 49 53 58 58 66 75 70
99 100 99 99 99 100 100 99 100 100 100 100 100 100 99 100 99 100 99 98 98 99 99 100 94 73 68 66 64 64 63 68 66 56 53 51 51 55 56 55 62 70 75 78
98 98 99 99 99 100 100 100 100 100 100 100 100 100 100 99 99 99 98 98 98 99 100 94 78 75 72 71 63 53 47 48 51 52 55 57 56 57 62 65 64 66 68 70
99 97 98 100 100 100 100 100 100 99 100 99 100 98 98 100 98 98 100 99 99 98 94 86 75 72 68 56 52 52 56 57 56 58 57 59 58 60 63 73 62 64 68 70

GFSNW_925_rhum_036.txt.gz
RH
57 58 61 51 46 45 50 67 60 65 57 41 76 56 38 29 28 28 31 30 37 30 31 42 54 49 41 46 42 34 37 48 47 34 26 27 28 36 48 75 49 75 83 62
56 60 65 54 50 47 51 73 84 69 64 46 60 45 35 30 28 28 28 32 35 35 40 57 55 52 50 45 47 47 40 47 65 53 46 38 30 29 38 60 70 63 76 62
58 60 65 58 50 51 62 83 79 74 83 69 50 43 38 40 37 32 32 32 33 38 43 52 57 54 50 43 39 54 49 50 50 64 45 37 28 28 29 47 79 68 70 53
59 62 66 60 50 49 57 86 66 55 59 55 57 47 41 42 40 33 32 34 34 40 46 51 63 58 51 46 46 41 52 58 53 48 45 36 33 34 35 34 38 54 48 59
58 62 63 60 52 51 56 81 77 68 57 41 47 60 48 47 40 36 36 36 44 42 51 50 63 57 55 53 42 46 60 71 52 44 63 60 41 42 47 44 34 41 60 73
59 63 62 57 52 51 56 61 62 71 77 48 59 59 43 48 44 38 49 53 62 63 53 58 60 56 53 52 49 65 70 78 74 54 83 65 68 49 38 39 46 44 53 65
60 65 61 55 48 46 67 63 72 85 72 62 54 45 38 50 43 57 57 55 55 47 50 46 41 46 56 58 69 62 75 93 93 74 72 38 42 44 41 67 69 70 75 77
60 66 61 54 53 54 61 62 68 82 93 78 49 50 67 67 69 68 68 67 53 54 60 62 47 76 52 65 72 76 67 87 98 73 88 50 44 44 48 46 68 73 81 80
60 66 62 57 58 55 51 65 66 73 89 74 68 61 60 75 77 76 66 60 65 74 88 74 75 70 41 67 65 67 76 79 78 99 64 59 47 44 38 42 74 78 81 86
61 63 60 59 63 50 40 60 63 66 86 78 67 64 65 73 79 86 71 61 70 68 95 94 88 83 59 81 82 87 94 94 93 99 92 78 55 50 41 71 64 83 82 83
65 61 59 54 62 50 44 67 63 59 93 88 83 78 64 73 75 81 72 71 81 98 81 80 91 99 81 74 71 82 88 93 95 94 93 82 54 53 58 63 85 85 86 81
67 62 56 52 57 55 44 59 62 60 87 87 68 68 69 68 66 81 72 58 82 83 94 98 95 96 96 95 81 62 62 68 82 75 77 56 60 53 74 80 85 80 79 78
69 64 56 53 61 58 43 61 61 55 94 83 81 80 59 59 62 58 77 89 76 86 80 98 97 90 94 97 94 71 55 65 81 73 57 69 84 81 77 77 79 77 74 74
73 66 60 69 60 52 45 63 65 53 98 100 86 62 63 61 59 56 58 75 83 90 94 99 97 97 83 90 71 73 59 61 68 73 92 88 83 82 84 84 79 72 66 63
76 69 65 78 67 58 54 63 76 71 54 98 94 69 62 58 62 62 63 71 87 97 100 100 96 94 93 97 89 94 73 67 81 84 67 74 83 89 85 85 77 65 61 50
81 74 68 72 69 64 64 84 61 67 62 93 89 84 74 64 71 77 85 87 94 95 99 100 97 89 85 96 98 76 68 58 58 73 88 89 92 89 83 74 65 59 40 38
86 80 74 66 66 71 76 77 88 74 53 97 100 96 83 71 79 88 92 87 94 90 97 95 93 88 94 100 98 66 65 77 85 85 85 94 89 91 76 63 47 34 35 36
90 85 79 71 70 71 73 88 81 68 72 92 98 93 93 76 100 100 97 100 96 99 99 100 96 97 100 100 93 77 76 86 86 83 74 77 79 74 68 52 35 45 47 48
85 85 81 71 70 92 92 88 80 70 67 98 99 88 89 86 100 99 97 99 100 99 100 100 97 99 98 89 87 79 87 86 89 81 72 72 68 57 43 43 46 51 54 55
82 80 78 99 100 96 85 72 97 100 100 100 100 96 98 91 100 100 100 100 100 100 95 98 100 99 91 90 82 75 80 84 76 73 65 51 51 49 49 54 56 57 57 59
92 99 100 100 96 87 99 100 99 99 99 100 97 97 96 94 98 100 98 100 100 93 90 96 97 98 90 84 84 76 68 64 58 45 44 45 48 53 59 63 61 58 58 63
94 91 97 89 93 99 100 100 100 100 99 100 100 100 98 100 96 99 100 99 100 94 97 100 96 93 82 82 80 73 53 41 43 49 50 50 51 48 48 49 50 54 56 57
87 87 100 100 100 100 99 99 100 99 99 100 100 100 100 100 100 100 100 100 98 98 100 99 96 82 75 68 51 50 46 46 47 49 44 41 42 42 44 48 51 55 61 62
99 100 99 99 99 99 99 99 99 100 100 100 100 99 100 100 100 100 99 99 99 99 98 96 93 89 75 61 55 51 59 66 56 54 52 50 49 48 49 51 53 62 69 64
100 100 98 98 99 99 99 100 100 99 100 100 100 99 99 100 99 100 99 98 98 98 98 100 98 85 73 70 67 61 64 72 59 51 52 52 54 56 57 55 58 64 67 72
96 99 99 100 99 99 100 100 99 100 100 100 100 100 99 98 99 98 98 98 97 98 100 98 84 78 77 72 70 63 54 50 52 53 55 58 59 60 62 61 62 63 66 71
96 99 100 100 98 99 100 100 100 100 100 99 99 98 96 99 98 98 99 98 99 100 95 92 78 75 71 63 61 59 57 59 62 62 60 60 57 60 65 75 60 63 67 71

GFSNW_925_rhum_042.txt.gz
RH
56 57 60 56 49 53 65 63 60 81 61 47 77 63 52 41 31 31 35 35 31 36 39 50 48 47 43 52 43 34 42 50 49 34 31 37 35 40 45 60 49 80 81 67
57 58 61 56 48 52 62 83 95 76 40 57 67 50 37 37 32 34 34 38 37 43 55 56 55 54 49 42 41 43 42 50 60 46 39 36 36 40 58 59 69 69 72 53
60 60 60 54 50 51 56 83 91 81 80 59 49 38 37 40 37 37 37 41 41 49 58 62 63 59 50 40 41 59 51 56 48 54 38 43 35 33 50 50 76 65 65 45
59 62 65 51 51 53 67 82 74 67 78 77 48 34 40 44 40 36 37 39 40 48 57 60 65 59 53 43 49 53 47 55 52 58 57 42 33 35 42 42 44 47 42 59
64 66 64 53 54 62 64 90 74 67 61 71 57 54 51 46 42 42 39 42 52 44 54 48 66 60 51 34 50 58 63 67 49 55 66 63 48 42 43 42 41 50 49 56
67 71 66 56 54 60 67 80 72 63 79 72 66 70 55 49 49 55 52 49 54 49 50 58 66 63 66 54 58 72 66 74 66 64 73 50 50 48 49 50 49 52 64 55
66 71 65 58 53 53 53 71 75 85 79 63 64 59 46 51 46 54 61 51 53 51 56 49 43 52 71 75 83 68 75 78 79 62 66 39 30 39 49 46 49 56 59 65
72 67 63 57 50 52 62 70 67 82 92 63 56 64 75 73 75 73 74 76 67 56 43 61 53 64 58 66 83 77 69 82 95 68 68 41 28 58 60 52 48 70 66 78
72 63 61 56 50 48 56 67 64 78 89 78 63 72 66 76 78 73 75 72 62 57 73 70 65 64 50 58 73 76 69 71 72 95 56 46 34 46 50 41 68 65 74 84
68 67 64 56 52 50 55 75 70 69 93 90 69 70 70 72 76 86 72 67 59 56 87 82 70 58 47 66 73 93 93 97 86 99 74 64 47 47 42 63 55 80 77 82
68 71 66 58 53 52 52 73 75 68 97 91 84 82 75 74 74 78 76 73 77 83 72 78 80 84 83 76 67 94 92 98 97 96 89 68 49 49 56 57 64 74 82 84
65 69 69 61 60 57 42 66 68 68 90 88 75 72 73 77 54 84 77 64 74 76 84 90 95 98 96 85 76 72 76 66 80 74 74 52 53 56 63 68 70 80 84 83
61 63 67 55 54 59 56 64 62 60 94 86 83 83 65 66 69 54 74 88 75 78 77 92 94 70 94 91 95 75 69 64 72 66 48 63 60 64 76 78 73 81 80 81
67 66 62 59 53 53 46 44 54 54 96 100 84 66 69 77 69 64 59 79 81 91 91 99 99 78 82 91 76 76 69 68 71 76 70 78 78 84 75 79 80 79 78 77
71 61 58 54 51 45 41 54 68 51 53 97 96 76 76 82 73 72 69 71 85 94 99 100 94 89 93 98 91 94 74 70 81 75 57 58 55 70 84 87 84 82 74 66
71 69 66 64 55 42 31 71 61 54 60 90 92 88 83 79 78 82 91 91 94 95 100 100 97 94 88 99 99 77 70 68 60 61 72 78 91 88 83 83 81 70 52 50
68 67 62 57 47 29 68 68 83 56 47 96 100 96 83 83 87 94 95 96 98 95 99 99 98 98 96 100 99 66 72 74 76 84 85 85 88 90 79 70 56 49 48 46
64 66 63 54 54 62 77 75 65 55 53 87 94 95 92 88 100 100 98 99 98 99 100 100 99 98 100 98 91 85 84 86 90 87 83 82 88 64 52 44 46 53 58 60
70 64 57 52 59 94 94 80 64 53 55 90 92 84 86 93 100 99 98 98 99 98 100 100 98 100 99 93 93 86 82 83 88 87 79 67 56 51 52 58 64 73 66 58
66 50 63 100 100 95 67 57 93 100 100 100 98 96 97 94 100 100 99 100 100 96 94 94 100 98 88 93 94 94 91 84 84 70 76 87 92 93 91 87 63 57 60 61
65 99 100 96 83 76 97 100 96 97 99 97 99 97 96 97 99 100 98 96 98 94 90 96 93 96 95 85 77 78 71 72 76 79 85 90 90 85 74 66 60 54 53 57
80 88 88 76 92 100 97 100 100 92 96 100 100 100 99 100 95 98 100 99 97 92 92 99 97 98 77 71 87 90 87 87 86 86 88 88 72 54 50 47 47 49 52 57
69 81 98 94 99 98 92 96 99 99 100 100 100 100 100 99 99 99 96 96 98 98 99 98 99 77 69 89 93 90 86 83 64 54 50 47 48 48 48 49 50 53 56 56
98 96 99 99 99 99 99 99 100 100 100 100 100 100 100 100 100 100 99 99 99 99 99 97 100 100 98 92 82 71 70 71 62 57 51 53 51 52 52 54 56 59 60 58
99 96 98 96 99 99 99 100 99 99 100 100 100 100 99 99 98 99 99 98 97 97 96 99 100 94 81 73 69 70 71 73 63 59 59 60 61 62 60 55 59 63 65 67
99 99 98 99 97 99 99 100 99 99 100 100 100 99 98 98 98 97 97 97 95 96 99 100 99 88 78 75 73 64 61 62 64 63 63 64 65 68 71 69 67 71 74 75
100 99 100 99 99 99 100 100 100 100 99 99 99 97 94 97 98 99 99 96 96 98 99 96 86 80 75 71 82 73 64 65 67 69 73 76 79 78 81 90 88 85 76 75

GFSNW_925_rhum_048.txt.gz
RH
69 92 100 91 67 64 91 58 55 100 84 57 48 48 32 30 30 35 27 23 21 24 26 30 24 27 26 36 27 29 31 31 38 29 26 27 26 26 28 30 33 43 39 20
79 98 100 87 66 70 84 54 67 98 74 65 57 36 30 32 30 30 32 29 26 31 31 36 36 36 43 37 32 32 31 33 41 36 30 31 30 29 27 31 38 37 57 18
80 88 100 82 60 66 72 46 74 91 66 37 39 37 32 30 38 33 32 35 35 38 39 41 44 44 43 39 36 56 32 34 32 35 26 27 33 32 28 24 35 22 26 14
83 86 100 82 60 67 90 52 44 46 75 52 37 32 27 28 38 35 33 36 30 32 45 42 45 42 41 41 62 42 35 36 33 35 34 32 28 28 31 28 23 32 17 16
86 87 99 80 61 75 94 56 51 53 50 40 35 41 32 27 39 35 34 32 35 35 36 31 41 39 37 36 44 42 41 43 42 45 43 39 36 28 26 29 26 26 22 23
90 93 100 78 65 89 68 71 53 39 66 48 36 35 29 29 35 49 40 33 38 43 44 45 42 40 34 32 41 46 43 50 47 42 42 39 62 36 27 24 26 26 28 22
83 94 99 76 67 77 55 62 43 58 61 50 33 30 32 36 36 41 46 38 39 53 43 38 38 41 41 39 44 40 51 48 60 59 56 74 19 26 26 27 24 23 25 28
80 100 96 68 67 67 93 83 49 57 99 48 34 35 41 50 54 56 48 56 47 42 40 48 52 62 78 60 48 43 38 47 73 88 39 25 15 21 24 28 20 22 24 24
100 99 76 64 68 62 96 97 61 49 79 64 30 41 45 51 54 61 66 55 46 41 50 65 75 65 47 54 58 50 43 45 52 77 89 85 22 31 38 34 33 31 30 34
96 80 64 67 70 63 90 94 55 52 76 57 50 42 50 48 52 62 58 55 55 46 75 99 95 63 39 48 63 88 83 88 90 72 95 44 25 33 37 40 30 38 36 38
66 62 69 74 71 62 94 91 65 66 81 73 69 59 54 55 49 62 57 52 58 64 93 99 73 87 47 43 36 54 61 80 93 84 99 80 29 41 48 38 38 40 45 42
61 71 77 78 64 63 89 94 69 63 70 77 78 81 82 71 50 49 54 50 50 46 66 82 82 95 92 64 57 49 53 44 49 47 41 37 33 36 41 43 43 42 45 47
73 76 76 71 61 72 85 80 68 76 84 71 66 70 74 78 83 76 54 62 51 51 56 62 74 100 63 96 60 47 45 44 50 50 31 34 35 32 35 36 44 45 51 51
76 74 70 68 60 73 73 69 65 72 90 100 82 77 76 85 82 76 67 60 64 56 53 91 96 97 55 60 47 49 41 48 45 47 36 35 37 45 51 52 58 59 59 58
75 70 68 65 65 62 64 64 69 62 79 98 92 76 80 80 69 64 60 53 51 62 85 99 88 66 72 73 64 60 43 42 55 52 46 45 51 65 67 63 63 60 56 54
78 74 65 62 60 60 48 63 57 67 59 88 100 79 76 77 76 72 72 65 68 74 85 97 76 72 71 97 66 57 54 55 55 50 60 62 68 65 62 64 58 52 52 52
78 74 66 74 71 49 55 55 67 57 65 95 99 94 77 84 76 82 77 80 93 79 91 98 90 85 71 100 78 70 68 66 65 64 64 71 68 68 55 52 51 56 67 80
81 79 75 57 44 56 66 75 51 52 63 73 100 95 91 82 97 97 83 96 88 93 96 95 97 94 95 98 77 68 66 69 71 67 61 59 51 48 53 65 77 91 89 83
61 55 50 53 61 85 85 67 55 52 61 98 97 98 97 82 96 95 90 92 100 92 100 99 84 95 97 93 82 70 69 76 66 55 53 55 63 69 73 78 84 84 76 64
47 38 62 96 99 77 58 66 76 89 98 99 100 88 98 83 97 98 95 99 100 100 94 91 100 90 79 77 78 74 75 68 63 76 83 82 85 82 74 68 57 55 57 52
54 95 100 86 68 68 86 100 100 99 100 93 93 81 93 87 93 100 98 100 98 100 86 90 93 88 87 82 80 72 65 66 65 65 70 74 69 59 58 52 54 49 49 48
76 79 73 71 83 99 100 100 100 97 95 99 96 98 90 98 84 95 97 99 97 97 79 98 86 92 85 82 81 78 78 74 70 70 69 67 58 48 45 44 48 56 62 60
66 85 100 100 99 100 100 100 99 99 100 99 100 100 99 98 86 100 99 98 97 79 98 83 88 80 87 86 78 71 71 70 64 51 45 48 53 63 62 67 74 73 72 77
100 99 100 100 100 99 100 97 98 100 100 100 99 100 99 100 100 100 100 100 92 98 94 92 94 100 97 78 60 50 55 74 52 50 58 70 69 74 84 88 87 79 80 78
100 100 100 100 100 99 100 100 100 100 99 100 100 99 93 100 100 99 100 100 97 86 84 93 97 97 83 65 54 53 60 79 64 60 82 88 86 88 84 84 75 79 91 90
100 98 100 100 100 100 100 100 100 99 100 100 95 100 100 100 97 99 99 92 86 90 86 100 97 97 71 60 59 58 58 61 67 74 79 88 90 80 71 74 76 82 82 90
100 99 100 100 100 100 100 100 100 99 100 100 100 100 100 96 94 95 86 93 90 98 100 98 99 80 63 58 65 78 74 74 78 77 74 74 76 76 64 56 54 57 59 69